This demonstration page uses our WeatherBlox Daily Observations layout. Learn more.

Left ArrowRight Arrow

36.17497, -115.13722

Hourly Observations for October 24, 2021

Temp ( °F °C ) Dew Point ( °F °C ) Humidity (%) Winds ( mph kmh ) Pressure ( in mb ) Visibility ( mi km ) Precip ( " mm )
12:53 am 00:53 Clear 64 17.8 40 4.4 41 41 WNW 7 11 29.76 1008 10 16 N/A
1:53 am 01:53 Clear 64 17.8 40 4.4 41 41 SSW 5 7 29.77 1008 10 16 N/A
2:53 am 02:53 Clear 64 17.8 39 3.9 40 40 N N/A 29.75 1007 10 16 N/A
3:53 am 03:53 Clear 62 16.7 39 3.9 43 43 N N/A 29.75 1007 10 16 N/A
4:53 am 04:53 Clear 62 16.7 39 3.9 43 43 N N/A 29.75 1007 10 16 N/A
5:53 am 05:53 Clear 60 15.6 39 3.9 46 46 N N/A 29.76 1008 10 16 N/A
6:53 am 06:53 Clear 60 15.6 38 3.3 44 44 E 8 13 29.77 1008 10 16 N/A
7:53 am 07:53 Sunny 64 17.8 38 3.3 38 38 ESE 9 15 29.78 1009 10 16 N/A
8:53 am 08:53 Sunny 65 18.3 38 3.3 37 37 SE 8 13 29.81 1009 10 16 N/A
9:53 am 09:53 Sunny 67 19.4 38 3.3 35 35 E 6 9 29.83 1010 10 16 N/A
10:53 am 10:53 Sunny 68 20 39 3.9 35 35 E 12 19 29.83 1010 10 16 N/A
11:53 am 11:53 Sunny 71 21.7 39 3.9 31 31 E 8 13 29.81 1010 10 16 N/A
12:53 pm 12:53 Sunny 72 22.2 39 3.9 30 30 ESE 12 19 29.79 1009 10 16 N/A
1:53 pm 13:53 Sunny 75 23.9 39 3.9 27 27 ESE 9 15 29.77 1008 10 16 N/A
2:53 pm 14:53 Sunny 77 25 41 5 28 28 S 10 17 29.75 1007 10 16 N/A
3:53 pm 15:53 Sunny 78 25.6 43 6.1 29 29 S 14 22 29.75 1008 10 16 N/A
4:53 pm 16:53 Sunny 78 25.6 42 5.6 28 28 S 9 15 29.75 1007 10 16 N/A
5:53 pm 17:53 Sunny 76 24.4 42 5.6 30 30 S 10 17 29.75 1007 10 16 N/A
6:53 pm 18:53 Clear 74 23.3 42 5.6 32 32 S 8 13 29.76 1008 10 16 N/A
7:53 pm 19:53 Clear 75 23.9 40 4.4 28 28 S 15 24 29.76 1008 10 16 N/A
8:53 pm 20:53 Clear 75 23.9 40 4.4 28 28 S 10 17 29.78 1008 10 16 N/A
9:53 pm 21:53 Clear 73 22.8 40 4.4 30 30 S 12 19 29.79 1009 10 16 N/A
10:53 pm 22:53 Clear 74 23.3 38 3.3 27 27 S 14 22 29.79 1009 10 16 N/A
11:53 pm 23:53 Clear 73 22.8 39 3.9 29 29 SSE 12 19 29.80 1009 10 16 N/A

Powered by AerisWeather